| time (UTC) | temp F | wind direction | speed MPH | gust MPH | rain 1hr in | rain 24hr in | rain mn in | humidity % | barometer mb |
| 20260506073426 | 54 | 57 | 0.0 | 0.0 | 0.00 | 0.00 | 0.00 | 91 | 1017.1 |
| 20260506072923 | 54 | 83 | 0.0 | 0.0 | 0.00 | 0.00 | 0.00 | 91 | 1017.0 |
| 20260506072420 | 54 | 88 | 0.0 | 0.0 | 0.00 | 0.00 | 0.00 | 91 | 1016.8 |
| 20260506071917 | 54 | 106 | 0.0 | 0.0 | 0.00 | 0.00 | 0.00 | 90 | 1017.0 |
| 20260506071416 | 55 | 112 | 0.0 | 0.0 | 0.00 | 0.00 | 0.00 | 90 | 1016.7 |
| 20260506070912 | 55 | 111 | 0.0 | 0.0 | 0.00 | 0.00 | 0.00 | 90 | 1016.8 |
| 20260506070409 | 55 | 122 | 0.0 | 0.0 | 0.00 | 0.00 | 0.00 | 90 | 1016.7 |
| 20260506062346 | 56 | 64 | 0.0 | 0.0 | 0.00 | 0.00 | 0.00 | 89 | 1016.2 |
| 20260506061842 | 56 | 105 | 0.0 | 0.0 | 0.00 | 0.00 | 0.00 | 89 | 1016.0 |
| 20260506061339 | 56 | 137 | 0.0 | 0.0 | 0.00 | 0.00 | 0.00 | 89 | 1016.1 |
| 20260506060837 | 56 | 136 | 0.0 | 0.0 | 0.00 | 0.00 | 0.00 | 89 | 1016.0 |
| 20260506060335 | 56 | 122 | 0.0 | 0.0 | 0.00 | 0.00 | 0.00 | 88 | 1016.0 |
| 20260506051306 | 57 | 145 | 0.0 | 0.0 | 0.00 | 0.00 | 0.00 | 88 | 1015.8 |
| 20260506050805 | 57 | 144 | 0.0 | 0.0 | 0.00 | 0.00 | 0.00 | 88 | 1015.7 |
| 20260506050302 | 57 | 167 | 0.0 | 0.0 | 0.00 | 0.00 | 0.00 | 88 | 1015.9 |
| 20260506044752 | 57 | 169 | 0.0 | 0.0 | 0.00 | 0.00 | 0.00 | 88 | 1015.5 |
| 20260506044250 | 57 | 176 | 0.0 | 0.0 | 0.00 | 0.00 | 0.00 | 88 | 1015.5 |
| 20260506043747 | 57 | 165 | 0.0 | 0.0 | 0.00 | 0.00 | 0.00 | 88 | 1015.7 |
| 20260506043244 | 57 | 146 | 0.0 | 0.0 | 0.00 | 0.00 | 0.00 | 88 | 1015.5 |
| 20260506042743 | 57 | 149 | 0.0 | 0.0 | 0.00 | 0.00 | 0.00 | 88 | 1015.4 |
| 20260506042241 | 57 | 147 | 0.0 | 0.0 | 0.00 | 0.00 | 0.00 | 88 | 1015.3 |
| 20260506041739 | 57 | 153 | 0.0 | 0.0 | 0.00 | 0.00 | 0.00 | 88 | 1015.2 |
| 20260506041236 | 57 | 164 | 0.0 | 0.0 | 0.00 | 0.00 | 0.00 | 88 | 1015.4 |
| 20260506040733 | 57 | 168 | 0.0 | 0.0 | 0.00 | 0.00 | 0.00 | 88 | 1015.0 |
| 20260506040230 | 57 | 171 | 0.0 | 0.0 | 0.00 | 0.00 | 0.00 | 88 | 1015.2 |
| 20260506035727 | 58 | 164 | 0.0 | 0.0 | 0.00 | 0.00 | 0.00 | 88 | 1015.2 |
| 20260506035224 | 58 | 170 | 0.0 | 0.0 | 0.00 | 0.00 | 0.00 | 88 | 1014.9 |
| 20260506034720 | 58 | 173 | 0.0 | 0.0 | 0.00 | 0.00 | 0.00 | 87 | 1014.9 |
| 20260506034218 | 58 | 180 | 0.0 | 0.0 | 0.00 | 0.00 | 0.00 | 87 | 1015.0 |
| 20260506033715 | 58 | 154 | 0.0 | 0.0 | 0.00 | 0.00 | 0.00 | 87 | 1014.8 |
| 20260506033212 | 58 | 200 | 0.0 | 0.0 | 0.00 | 0.00 | 0.00 | 87 | 1014.6 |
| 20260506032709 | 58 | 173 | 0.0 | 0.0 | 0.00 | 0.00 | 0.00 | 87 | 1014.8 |
| 20260506032206 | 58 | 202 | 0.0 | 0.0 | 0.00 | 0.00 | 0.00 | 86 | 1014.5 |
| 20260506031702 | 58 | 203 | 0.0 | 0.0 | 0.00 | 0.00 | 0.00 | 86 | 1014.6 |
| 20260506031200 | 58 | 168 | 0.0 | 0.0 | 0.00 | 0.00 | 0.00 | 86 | 1014.4 |
| 20260506030658 | 58 | 180 | 0.0 | 0.0 | 0.00 | 0.00 | 0.00 | 85 | 1014.2 |
| 20260506030155 | 59 | 155 | 0.0 | 1.0 | 0.00 | 0.00 | 0.00 | 85 | 1014.2 |
| 20260506025652 | 59 | 198 | 0.0 | 0.0 | 0.00 | 0.00 | 0.00 | 84 | 1014.0 |
| 20260506025148 | 59 | 163 | 0.0 | 0.0 | 0.00 | 0.00 | 0.00 | 84 | 1014.1 |
| 20260506024646 | 59 | 159 | 0.0 | 0.0 | 0.00 | 0.00 | 0.00 | 83 | 1013.8 |
| 20260506024142 | 59 | 218 | 0.0 | 1.0 | 0.00 | 0.00 | 0.00 | 82 | 1013.9 |
| 20260506023638 | 60 | 193 | 0.0 | 0.0 | 0.00 | 0.00 | 0.00 | 82 | 1013.9 |
| 20260506023135 | 60 | 179 | 0.0 | 0.0 | 0.00 | 0.00 | 0.00 | 80 | 1013.9 |
| 20260506022633 | 61 | 163 | 0.0 | 0.0 | 0.00 | 0.00 | 0.00 | 79 | 1013.8 |
| 20260506022130 | 61 | 175 | 0.0 | 0.0 | 0.00 | 0.00 | 0.00 | 78 | 1013.5 |
| 20260506021628 | 61 | 179 | 0.0 | 0.0 | 0.00 | 0.00 | 0.00 | 77 | 1013.6 |
| 20260506021125 | 62 | 218 | 0.0 | 0.0 | 0.00 | 0.00 | 0.00 | 76 | 1013.6 |
| 20260506020622 | 62 | 187 | 0.0 | 0.0 | 0.00 | 0.00 | 0.00 | 76 | 1013.5 |
| 20260506020119 | 62 | 223 | 0.0 | 0.0 | 0.00 | 0.00 | 0.00 | 76 | 1013.6 |
| 20260506015617 | 62 | 222 | 0.0 | 0.0 | 0.00 | 0.00 | 0.00 | 77 | 1013.5 |
| 20260506015114 | 62 | 172 | 0.0 | 0.0 | 0.00 | 0.00 | 0.00 | 77 | 1013.5 |
| 20260506014611 | 62 | 180 | 0.0 | 0.0 | 0.00 | 0.00 | 0.00 | 76 | 1013.6 |
| 20260506014106 | 62 | 200 | 0.0 | 0.0 | 0.00 | 0.00 | 0.00 | 76 | 1013.3 |
| 20260506013605 | 63 | 226 | 1.0 | 2.0 | 0.00 | 0.00 | 0.00 | 74 | 1013.4 |
| 20260506013101 | 64 | 168 | 0.0 | 0.0 | 0.00 | 0.00 | 0.00 | 73 | 1013.6 |
| 20260506012557 | 64 | 236 | 1.0 | 2.0 | 0.00 | 0.00 | 0.00 | 73 | 1013.6 |
| 20260506012054 | 63 | 222 | 0.0 | 1.0 | 0.00 | 0.00 | 0.00 | 73 | 1013.5 |
| 20260506011552 | 63 | 210 | 5.0 | 8.0 | 0.00 | 0.00 | 0.00 | 73 | 1013.4 |
| 20260506011048 | 63 | 229 | 3.0 | 7.0 | 0.00 | 0.00 | 0.00 | 73 | 1013.6 |
| 20260506010548 | 63 | 239 | 0.0 | 1.0 | 0.00 | 0.00 | 0.00 | 73 | 1013.5 |
| 20260506010044 | 64 | 237 | 0.0 | 0.0 | 0.00 | 0.00 | 0.00 | 73 | 1013.5 |
| 20260506005541 | 63 | 215 | 0.0 | 0.0 | 0.00 | 0.00 | 0.00 | 73 | 1013.6 |
| 20260506005037 | 63 | 233 | 0.0 | 1.0 | 0.00 | 0.00 | 0.00 | 72 | 1013.3 |
| 20260506004535 | 62 | 266 | 3.0 | 7.0 | 0.00 | 0.00 | 0.00 | 73 | 1013.3 |
| 20260506004031 | 62 | 237 | 0.0 | 0.0 | 0.00 | 0.00 | 0.00 | 74 | 1013.4 |
| 20260506003527 | 62 | 251 | 1.0 | 2.0 | 0.00 | 0.00 | 0.00 | 74 | 1013.3 |
| 20260506003024 | 62 | 242 | 0.0 | 0.0 | 0.00 | 0.00 | 0.00 | 75 | 1013.5 |
| 20260506002520 | 63 | 275 | 3.0 | 7.0 | 0.00 | 0.00 | 0.00 | 75 | 1013.3 |
| 20260506002015 | 63 | 275 | 2.0 | 5.0 | 0.00 | 0.00 | 0.00 | 75 | 1013.4 |
| 20260506001512 | 62 | 176 | 2.0 | 3.0 | 0.00 | 0.00 | 0.00 | 75 | 1013.4 |
| 20260506001009 | 62 | 209 | 0.0 | 0.0 | 0.00 | 0.00 | 0.00 | 75 | 1013.3 |
| 20260506000507 | 63 | 234 | 0.0 | 1.0 | 0.00 | 0.00 | 0.00 | 74 | 1013.6 |
| 20260506000004 | 63 | 276 | 3.0 | 5.0 | 0.00 | 0.00 | 0.00 | 75 | 1013.3 |
| 20260505235502 | 63 | 276 | 3.0 | 5.0 | 0.00 | 0.00 | 0.00 | 73 | 1013.4 |
| 20260505234958 | 64 | 207 | 3.0 | 8.0 | 0.00 | 0.00 | 0.00 | 74 | 1013.4 |
| 20260505234456 | 65 | 204 | 1.0 | 3.0 | 0.00 | 0.00 | 0.00 | 73 | 1013.1 |
| 20260505233952 | 65 | 283 | 1.0 | 3.0 | 0.00 | 0.00 | 0.00 | 70 | 1013.3 |
| 20260505233450 | 65 | 199 | 0.0 | 0.0 | 0.00 | 0.00 | 0.00 | 69 | 1013.3 |
| 20260505232947 | 66 | 274 | 1.0 | 5.0 | 0.00 | 0.00 | 0.00 | 68 | 1013.2 |
| 20260505232445 | 66 | 251 | 3.0 | 6.0 | 0.00 | 0.00 | 0.00 | 67 | 1013.3 |
| 20260505231942 | 66 | 259 | 3.0 | 5.0 | 0.00 | 0.00 | 0.00 | 68 | 1013.3 |
| 20260505231439 | 67 | 255 | 1.0 | 1.0 | 0.00 | 0.00 | 0.00 | 66 | 1013.1 |
| 20260505230937 | 67 | 270 | 0.0 | 0.0 | 0.00 | 0.00 | 0.00 | 66 | 1013.4 |
| 20260505230435 | 67 | 240 | 0.0 | 1.0 | 0.00 | 0.00 | 0.00 | 64 | 1013.2 |
| 20260505225931 | 66 | 220 | 2.0 | 5.0 | 0.00 | 0.00 | 0.00 | 66 | 1013.1 |
| 20260505225428 | 66 | 224 | 3.0 | 7.0 | 0.00 | 0.00 | 0.00 | 67 | 1013.4 |
| 20260505224924 | 66 | 279 | 5.0 | 8.0 | 0.00 | 0.00 | 0.00 | 67 | 1013.5 |
| 20260505224421 | 66 | 268 | 3.0 | 6.0 | 0.00 | 0.00 | 0.00 | 67 | 1013.3 |
| 20260505223918 | 65 | 246 | 4.0 | 7.0 | 0.00 | 0.00 | 0.00 | 68 | 1013.2 |
| 20260505223415 | 66 | 253 | 4.0 | 6.0 | 0.00 | 0.00 | 0.00 | 68 | 1013.4 |
| 20260505222911 | 65 | 258 | 1.0 | 2.0 | 0.00 | 0.00 | 0.00 | 67 | 1013.6 |
| 20260505222408 | 66 | 261 | 2.0 | 2.0 | 0.00 | 0.00 | 0.00 | 65 | 1013.4 |
| 20260505221904 | 66 | 45 | 0.0 | 0.0 | 0.00 | 0.00 | 0.00 | 65 | 1013.7 |
| 20260505221401 | 66 | 250 | 7.0 | 9.0 | 0.00 | 0.00 | 0.00 | 63 | 1013.5 |
| 20260505220858 | 66 | 271 | 5.0 | 8.0 | 0.00 | 0.00 | 0.00 | 62 | 1013.5 |
| 20260505220355 | 65 | 263 | 2.0 | 5.0 | 0.00 | 0.00 | 0.00 | 63 | 1013.6 |
| 20260505215853 | 65 | 279 | 2.0 | 7.0 | 0.00 | 0.00 | 0.00 | 60 | 1013.8 |
| 20260505215351 | 65 | 263 | 5.0 | 7.0 | 0.00 | 0.00 | 0.00 | 63 | 1014.0 |
| 20260505214849 | 66 | 293 | 1.0 | 2.0 | 0.00 | 0.00 | 0.00 | 62 | 1013.8 |
| 20260505214346 | 66 | 278 | 6.0 | 10.0 | 0.00 | 0.00 | 0.00 | 61 | 1013.7 |
| 20260505213843 | 66 | 190 | 0.0 | 1.0 | 0.00 | 0.00 | 0.00 | 64 | 1013.9 |
| 20260505213341 | 66 | 235 | 3.0 | 5.0 | 0.00 | 0.00 | 0.00 | 64 | 1013.9 |
| 20260505212836 | 65 | 269 | 0.0 | 1.0 | 0.00 | 0.00 | 0.00 | 65 | 1013.9 |
| 20260505212334 | 65 | 248 | 7.0 | 10.0 | 0.00 | 0.00 | 0.00 | 65 | 1013.9 |
| 20260505211829 | 66 | 263 | 4.0 | 7.0 | 0.00 | 0.00 | 0.00 | 65 | 1013.9 |
| 20260505211328 | 66 | 227 | 0.0 | 0.0 | 0.00 | 0.00 | 0.00 | 63 | 1014.1 |
| 20260505210824 | 65 | 250 | 1.0 | 5.0 | 0.00 | 0.00 | 0.00 | 65 | 1014.1 |
| 20260505210321 | 66 | 274 | 3.0 | 6.0 | 0.00 | 0.00 | 0.00 | 63 | 1013.9 |
| 20260505205818 | 66 | 202 | 0.0 | 0.0 | 0.00 | 0.00 | 0.00 | 61 | 1014.0 |
| 20260505205316 | 66 | 250 | 4.0 | 6.0 | 0.00 | 0.00 | 0.00 | 61 | 1013.9 |
| 20260505204812 | 67 | 223 | 4.0 | 7.0 | 0.00 | 0.00 | 0.00 | 60 | 1014.1 |
| 20260505204310 | 68 | 236 | 1.0 | 5.0 | 0.00 | 0.00 | 0.00 | 59 | 1013.9 |
| 20260505203807 | 68 | 269 | 2.0 | 3.0 | 0.00 | 0.00 | 0.00 | 58 | 1013.9 |
| 20260505203304 | 68 | 301 | 5.0 | 9.0 | 0.00 | 0.00 | 0.00 | 58 | 1013.9 |
| 20260505202800 | 68 | 227 | 0.0 | 0.0 | 0.00 | 0.00 | 0.00 | 56 | 1013.8 |
| 20260505202256 | 68 | 221 | 2.0 | 5.0 | 0.00 | 0.00 | 0.00 | 55 | 1013.6 |
| 20260505201753 | 68 | 288 | 7.0 | 9.0 | 0.00 | 0.00 | 0.00 | 55 | 1013.8 |
| 20260505201251 | 68 | 201 | 1.0 | 2.0 | 0.00 | 0.00 | 0.00 | 54 | 1014.0 |
| 20260505200749 | 67 | 234 | 1.0 | 2.0 | 0.00 | 0.00 | 0.00 | 57 | 1013.9 |
| 20260505200246 | 67 | 231 | 0.0 | 1.0 | 0.00 | 0.00 | 0.00 | 57 | 1014.0 |
| 20260505195741 | 68 | 265 | 0.0 | 0.0 | 0.00 | 0.00 | 0.00 | 58 | 1014.1 |
| 20260505195239 | 67 | 233 | 0.0 | 0.0 | 0.00 | 0.00 | 0.00 | 61 | 1013.9 |
| 20260505194736 | 66 | 247 | 0.0 | 1.0 | 0.00 | 0.00 | 0.00 | 60 | 1013.9 |
| 20260505194232 | 66 | 279 | 4.0 | 6.0 | 0.00 | 0.00 | 0.00 | 61 | 1014.1 |
| 20260505193728 | 65 | 255 | 3.0 | 6.0 | 0.00 | 0.00 | 0.00 | 62 | 1014.3 |
| 20260505193225 | 67 | 248 | 1.0 | 2.0 | 0.00 | 0.00 | 0.00 | 59 | 1014.2 |
| 20260505192724 | 67 | 218 | 0.0 | 0.0 | 0.00 | 0.00 | 0.00 | 61 | 1014.1 |
| 20260505192221 | 68 | 165 | 1.0 | 5.0 | 0.00 | 0.00 | 0.00 | 60 | 1014.3 |
| 20260505191719 | 67 | 251 | 1.0 | 3.0 | 0.00 | 0.00 | 0.00 | 61 | 1014.3 |
| 20260505191218 | 67 | 297 | 0.0 | 2.0 | 0.00 | 0.00 | 0.00 | 61 | 1014.4 |
| 20260505190714 | 66 | 212 | 0.0 | 0.0 | 0.00 | 0.00 | 0.00 | 64 | 1014.3 |
| 20260505190213 | 66 | 260 | 6.0 | 11.0 | 0.00 | 0.00 | 0.00 | 62 | 1014.4 |
| 20260505185710 | 66 | 239 | 0.0 | 2.0 | 0.00 | 0.00 | 0.00 | 65 | 1014.2 |
| 20260505185206 | 66 | 278 | 2.0 | 7.0 | 0.00 | 0.00 | 0.00 | 64 | 1014.0 |
| 20260505184702 | 67 | 258 | 2.0 | 7.0 | 0.00 | 0.00 | 0.00 | 61 | 1013.9 |
| 20260505184200 | 67 | 252 | 1.0 | 3.0 | 0.00 | 0.00 | 0.00 | 59 | 1013.9 |
| 20260505183657 | 67 | 250 | 7.0 | 9.0 | 0.00 | 0.00 | 0.00 | 59 | 1013.9 |
| 20260505183155 | 67 | 208 | 0.0 | 1.0 | 0.00 | 0.00 | 0.00 | 59 | 1014.0 |
| 20260505182650 | 66 | 265 | 0.0 | 1.0 | 0.00 | 0.00 | 0.00 | 60 | 1014.0 |
| 20260505182148 | 67 | 270 | 0.0 | 0.0 | 0.00 | 0.00 | 0.00 | 60 | 1013.9 |
| 20260505181644 | 67 | 251 | 0.0 | 0.0 | 0.00 | 0.00 | 0.00 | 61 | 1013.9 |
| 20260505181142 | 66 | 254 | 1.0 | 1.0 | 0.00 | 0.00 | 0.00 | 61 | 1013.9 |
| 20260505180637 | 67 | 163 | 0.0 | 0.0 | 0.00 | 0.00 | 0.00 | 62 | 1014.1 |
| 20260505180135 | 66 | 178 | 1.0 | 5.0 | 0.00 | 0.00 | 0.00 | 63 | 1014.0 |
| 20260505175631 | 66 | 238 | 0.0 | 0.0 | 0.00 | 0.00 | 0.00 | 64 | 1013.8 |
| 20260505175127 | 66 | 280 | 0.0 | 0.0 | 0.00 | 0.00 | 0.00 | 64 | 1013.8 |
| 20260505174624 | 65 | 264 | 0.0 | 0.0 | 0.00 | 0.00 | 0.00 | 64 | 1014.0 |
| 20260505174120 | 66 | 176 | 0.0 | 0.0 | 0.00 | 0.00 | 0.00 | 63 | 1014.0 |
| 20260505173617 | 65 | 202 | 0.0 | 0.0 | 0.00 | 0.00 | 0.00 | 63 | 1013.8 |
| 20260505173114 | 66 | 247 | 2.0 | 2.0 | 0.00 | 0.00 | 0.00 | 63 | 1014.1 |
| 20260505172612 | 64 | 133 | 0.0 | 0.0 | 0.00 | 0.00 | 0.00 | 65 | 1013.9 |
| 20260505172108 | 64 | 265 | 0.0 | 0.0 | 0.00 | 0.00 | 0.00 | 66 | 1013.8 |
| 20260505171602 | 64 | 210 | 0.0 | 0.0 | 0.00 | 0.00 | 0.00 | 64 | 1013.9 |
| 20260505171100 | 63 | 190 | 0.0 | 0.0 | 0.00 | 0.00 | 0.00 | 67 | 1013.9 |
| 20260505170556 | 64 | 240 | 0.0 | 0.0 | 0.00 | 0.00 | 0.00 | 67 | 1013.8 |
| 20260505170053 | 64 | 173 | 0.0 | 0.0 | 0.00 | 0.00 | 0.00 | 65 | 1013.7 |
| 20260505165548 | 64 | 213 | 0.0 | 0.0 | 0.00 | 0.00 | 0.00 | 65 | 1013.7 |
| 20260505165044 | 63 | 133 | 0.0 | 0.0 | 0.00 | 0.00 | 0.00 | 68 | 1013.8 |
| 20260505164540 | 64 | 256 | 0.0 | 1.0 | 0.00 | 0.00 | 0.00 | 67 | 1013.8 |
| 20260505164038 | 64 | 84 | 0.0 | 0.0 | 0.00 | 0.00 | 0.00 | 68 | 1013.7 |
| 20260505163531 | 64 | 164 | 0.0 | 0.0 | 0.00 | 0.00 | 0.00 | 69 | 1013.8 |
| 20260505163027 | 63 | 120 | 0.0 | 0.0 | 0.00 | 0.00 | 0.00 | 71 | 1013.7 |
| 20260505162520 | 62 | 162 | 0.0 | 0.0 | 0.00 | 0.00 | 0.00 | 73 | 1013.5 |
| 20260505162017 | 62 | 180 | 0.0 | 0.0 | 0.00 | 0.00 | 0.00 | 74 | 1013.6 |
| 20260505161514 | 62 | 150 | 0.0 | 0.0 | 0.00 | 0.00 | 0.00 | 75 | 1013.5 |
| 20260505161012 | 61 | 180 | 0.0 | 0.0 | 0.00 | 0.00 | 0.00 | 76 | 1013.6 |
| 20260505160510 | 60 | 250 | 0.0 | 0.0 | 0.00 | 0.00 | 0.00 | 78 | 1013.5 |
| 20260505152945 | 60 | 172 | 0.0 | 0.0 | 0.00 | 0.00 | 0.00 | 83 | 1013.1 |
| 20260505152443 | 60 | 166 | 0.0 | 0.0 | 0.00 | 0.00 | 0.00 | 83 | 1013.3 |
| 20260505151937 | 59 | 222 | 0.0 | 0.0 | 0.00 | 0.00 | 0.00 | 83 | 1013.4 |
| 20260505151433 | 59 | 115 | 0.0 | 0.0 | 0.00 | 0.00 | 0.00 | 84 | 1013.1 |
| 20260505150931 | 59 | 174 | 0.0 | 0.0 | 0.00 | 0.00 | 0.00 | 84 | 1013.3 |
| 20260505150428 | 58 | 148 | 0.0 | 0.0 | 0.00 | 0.00 | 0.00 | 85 | 1013.3 |
| 20260505140358 | 53 | 116 | 0.0 | 0.0 | 0.00 | 0.00 | 0.00 | 92 | 1013.2 |
| 20260505124811 | 53 | 130 | 0.0 | 0.0 | 0.00 | 0.00 | 0.00 | 93 | 1012.7 |
| 20260505124308 | 52 | 124 | 0.0 | 0.0 | 0.00 | 0.00 | 0.00 | 93 | 1012.9 |
| 20260505123804 | 53 | 129 | 0.0 | 0.0 | 0.00 | 0.00 | 0.00 | 93 | 1012.8 |
| 20260505123301 | 53 | 128 | 0.0 | 0.0 | 0.00 | 0.00 | 0.00 | 94 | 1012.8 |
| 20260505122757 | 52 | 132 | 0.0 | 0.0 | 0.00 | 0.00 | 0.00 | 94 | 1012.9 |
| 20260505122255 | 52 | 99 | 0.0 | 0.0 | 0.00 | 0.00 | 0.00 | 94 | 1012.9 |
| 20260505121751 | 52 | 133 | 0.0 | 0.0 | 0.00 | 0.00 | 0.00 | 94 | 1013.1 |
| 20260505121248 | 53 | 121 | 0.0 | 0.0 | 0.00 | 0.00 | 0.00 | 94 | 1012.8 |
| 20260505120744 | 53 | 109 | 0.0 | 0.0 | 0.00 | 0.00 | 0.00 | 94 | 1012.8 |
| 20260505120240 | 53 | 126 | 0.0 | 0.0 | 0.00 | 0.00 | 0.00 | 94 | 1012.8 |
| 20260505115739 | 54 | 129 | 0.0 | 0.0 | 0.00 | 0.00 | 0.00 | 94 | 1012.8 |
| 20260505115237 | 53 | 130 | 0.0 | 0.0 | 0.00 | 0.00 | 0.00 | 94 | 1013.0 |
| 20260505114734 | 53 | 154 | 0.0 | 0.0 | 0.00 | 0.00 | 0.00 | 94 | 1012.9 |
| 20260505114230 | 53 | 156 | 0.0 | 0.0 | 0.00 | 0.00 | 0.00 | 94 | 1013.0 |
| 20260505113727 | 53 | 156 | 0.0 | 0.0 | 0.00 | 0.00 | 0.00 | 94 | 1013.0 |
| 20260505113223 | 53 | 156 | 0.0 | 0.0 | 0.00 | 0.00 | 0.00 | 94 | 1013.0 |
| 20260505112719 | 53 | 156 | 0.0 | 0.0 | 0.00 | 0.00 | 0.00 | 94 | 1012.8 |
| 20260505112218 | 53 | 157 | 0.0 | 0.0 | 0.00 | 0.00 | 0.00 | 94 | 1012.9 |
| 20260505111717 | 53 | 149 | 0.0 | 0.0 | 0.00 | 0.00 | 0.00 | 93 | 1013.0 |
| 20260505111214 | 53 | 149 | 0.0 | 0.0 | 0.00 | 0.00 | 0.00 | 93 | 1013.0 |
| 20260505110709 | 53 | 150 | 0.0 | 0.0 | 0.00 | 0.00 | 0.00 | 93 | 1012.9 |
| 20260505110207 | 53 | 149 | 0.0 | 0.0 | 0.00 | 0.00 | 0.00 | 92 | 1012.8 |
| 20260505102142 | 56 | 157 | 0.0 | 0.0 | 0.00 | 0.00 | 0.00 | 91 | 1012.8 |
| 20260505101641 | 56 | 164 | 0.0 | 0.0 | 0.00 | 0.00 | 0.00 | 91 | 1013.0 |
| 20260505101137 | 56 | 179 | 0.0 | 0.0 | 0.00 | 0.00 | 0.00 | 91 | 1013.0 |
| 20260505100633 | 56 | 169 | 0.0 | 0.0 | 0.00 | 0.00 | 0.00 | 90 | 1012.8 |
| 20260505100130 | 56 | 172 | 0.0 | 0.0 | 0.00 | 0.00 | 0.00 | 90 | 1013.1 |
| 20260505095626 | 56 | 165 | 0.0 | 0.0 | 0.00 | 0.00 | 0.00 | 90 | 1013.1 |
| 20260505095123 | 56 | 158 | 0.0 | 0.0 | 0.00 | 0.00 | 0.00 | 90 | 1013.2 |
| 20260505094620 | 57 | 169 | 0.0 | 0.0 | 0.00 | 0.00 | 0.00 | 89 | 1013.0 |
| 20260505094116 | 57 | 165 | 0.0 | 0.0 | 0.00 | 0.00 | 0.00 | 89 | 1013.4 |
| 20260505093612 | 57 | 167 | 0.0 | 0.0 | 0.00 | 0.00 | 0.00 | 88 | 1013.2 |
| 20260505093110 | 57 | 152 | 0.0 | 0.0 | 0.00 | 0.00 | 0.00 | 88 | 1013.1 |
| 20260505092607 | 57 | 172 | 0.0 | 0.0 | 0.00 | 0.00 | 0.00 | 88 | 1013.2 |
| 20260505092106 | 57 | 164 | 0.0 | 0.0 | 0.00 | 0.00 | 0.00 | 87 | 1013.5 |
| 20260505091602 | 57 | 149 | 0.0 | 0.0 | 0.00 | 0.00 | 0.00 | 87 | 1013.5 |
| 20260505091100 | 57 | 158 | 0.0 | 0.0 | 0.00 | 0.00 | 0.00 | 87 | 1013.3 |
| 20260505090558 | 57 | 161 | 0.0 | 0.0 | 0.00 | 0.00 | 0.00 | 87 | 1013.7 |
| 20260505090056 | 57 | 176 | 0.0 | 0.0 | 0.00 | 0.00 | 0.00 | 87 | 1013.4 |
| 20260505085553 | 57 | 166 | 0.0 | 0.0 | 0.00 | 0.00 | 0.00 | 86 | 1013.9 |
| 20260505085051 | 57 | 152 | 0.0 | 0.0 | 0.00 | 0.00 | 0.00 | 86 | 1013.9 |
| 20260505084549 | 57 | 169 | 0.0 | 0.0 | 0.00 | 0.00 | 0.00 | 86 | 1013.6 |
| 20260505084047 | 57 | 160 | 0.0 | 0.0 | 0.00 | 0.00 | 0.00 | 86 | 1013.8 |
| 20260505083543 | 57 | 122 | 0.0 | 0.0 | 0.00 | 0.00 | 0.00 | 86 | 1013.8 |
| 20260505083040 | 57 | 158 | 0.0 | 0.0 | 0.00 | 0.00 | 0.00 | 86 | 1013.8 |
| 20260505082536 | 57 | 171 | 0.0 | 0.0 | 0.00 | 0.00 | 0.00 | 86 | 1014.0 |
| 20260505082033 | 57 | 162 | 0.0 | 0.0 | 0.00 | 0.00 | 0.00 | 86 | 1013.7 |
| 20260505081529 | 57 | 173 | 0.0 | 0.0 | 0.00 | 0.00 | 0.00 | 86 | 1014.1 |
| 20260505081027 | 57 | 168 | 0.0 | 0.0 | 0.00 | 0.00 | 0.00 | 86 | 1014.0 |
| 20260505080523 | 57 | 171 | 0.0 | 0.0 | 0.00 | 0.00 | 0.00 | 86 | 1014.3 |